Rock Hill, SC

10:35 AM EDT on April 23, 2017 (GMT -0400)
Rock Hill-York County-Bryant

Weather History for KUZA - July, 2013

Change the Weather History Date:

Monday, July 15, 2013

  Actual Average Record
Temperature  
Mean Temperature 80 °F -  
Max Temperature 88 °F 90 °F 99 °F (1962)
Min Temperature 71 °F 70 °F 63 °F (1960)
Cooling Degree Days 14    
Growing Degree Days 30 (Base 50)    
Moisture  
Dew Point 72 °F    
Average Humidity 85    
Maximum Humidity 100    
Minimum Humidity 55    
Precipitation  
Precipitation 0.00 in - - ()
Sea Level Pressure  
Sea Level Pressure 30.30 in    
Wind  
Wind Speed 2 mph (East)    
Max Wind Speed 8 mph    
Max Gust Speed -    
Visibility 7 miles    
Events      
Averages and records for this station are not official NWS values.
T = Trace of Precipitation, MM = Missing Value Source: NWS Daily Summary

Daily Weather History Graph

Daily Weather History Graph

Search for Another Location

Airport or City:

Trip Planner

Search our weather history database for the weather conditions in past years. The results will help you decide how hot, cold, wet, or windy it might be!

Date:

Astronomy

Jul. 15, 2013 Rise Set
Actual Time 6:21 AM EDT 8:38 PM EDT
Civil Twilight 5:52 AM EDT 9:07 PM EDT
Nautical Twilight 5:17 AM EDT 9:42 PM EDT
Astronomical Twilight 4:38 AM EDT 10:21 PM EDT
Moon 1:20 PM EDT (7/15) 12:08 AM EDT (7/15)
Length of Visible Light 15h 14m
Length of Day
14h 16m
Waxing Crescent, 45% of the Moon is Illuminated
Jul 15
Waxing Crescent
Jul 15
First Quarter
Jul 22
Full
Jul 29
Last Quarter
Aug 6
New

Hourly Weather History & Observations

Time (EDT) Temp. Heat Index Dew Point Humidity Pressure Visibility Wind Dir Wind Speed Gust Speed Precip Events Conditions
12:54 AM 73.0 °F - 72.0 °F 96% 30.26 in 9.0 mi Calm Calm - N/A   Clear
1:27 AM 72.0 °F - 71.1 °F 97% 30.31 in 2.0 mi Calm Calm - N/A   Clear
1:37 AM 72.0 °F - 71.1 °F 97% 30.31 in 8.0 mi Calm Calm - N/A   Clear
1:54 AM 72.0 °F - 71.1 °F 97% 30.27 in 3.0 mi Calm Calm - N/A   Clear
2:54 AM 71.1 °F - 70.0 °F 96% 30.27 in 8.0 mi Calm Calm - N/A   Clear
3:54 AM 71.1 °F - 70.0 °F 96% 30.27 in 4.0 mi Calm Calm - N/A   Scattered Clouds
4:41 AM 71.1 °F - 70.0 °F 96% 30.30 in 8.0 mi Calm Calm - N/A   Scattered Clouds
4:54 AM 71.1 °F - 70.0 °F 96% 30.27 in 8.0 mi Calm Calm - N/A   Scattered Clouds
5:35 AM 71.1 °F - 70.0 °F 96% 30.31 in 7.0 mi Calm Calm - N/A   Mostly Cloudy
5:43 AM 72.0 °F - 71.1 °F 97% 30.31 in 7.0 mi Calm Calm - N/A   Mostly Cloudy
5:52 AM 71.6 °F - 71.6 °F 100% 30.32 in 7.0 mi Calm Calm - N/A   Overcast
5:54 AM 72.0 °F - 71.1 °F 97% 30.28 in 7.0 mi Calm Calm - N/A   Overcast
6:06 AM 72.0 °F - 71.1 °F 97% 30.32 in 2.5 mi Calm Calm - N/A   Overcast
6:14 AM 72.0 °F - 72.0 °F 100% 30.32 in 6.0 mi Variable 3.5 mph - N/A   Overcast
6:41 AM 73.0 °F - 72.0 °F 96% 30.32 in 2.0 mi Calm Calm - N/A   Overcast
6:54 AM 73.0 °F - 72.0 °F 96% 30.29 in 1.8 mi East 3.5 mph - N/A   Overcast
7:02 AM 73.0 °F - 72.0 °F 96% 30.32 in 2.5 mi Calm Calm - N/A   Overcast
7:10 AM 73.0 °F - 72.0 °F 96% 30.33 in 3.0 mi Variable 3.5 mph - N/A   Overcast
7:30 AM 73.0 °F - 72.0 °F 96% 30.33 in 3.0 mi NE 3.5 mph - N/A   Overcast
7:41 AM 73.0 °F - 73.0 °F 100% 30.33 in 4.0 mi Variable 3.5 mph - N/A   Overcast
7:50 AM 73.4 °F - 73.4 °F 100% 30.33 in 4.0 mi Calm Calm - N/A   Overcast
7:54 AM 73.9 °F - 72.0 °F 93% 30.30 in 4.0 mi Calm Calm - N/A   Overcast
8:02 AM 73.9 °F - 72.0 °F 93% 30.33 in 4.0 mi Variable 3.5 mph - N/A   Overcast
8:09 AM 73.9 °F - 73.0 °F 97% 30.34 in 4.0 mi ENE 4.6 mph - N/A   Overcast
8:13 AM 73.9 °F - 72.0 °F 93% 30.33 in 2.5 mi ENE 3.5 mph - N/A   Overcast
8:38 AM 75.0 °F - 73.0 °F 94% 30.34 in 6.0 mi Variable 3.5 mph - N/A   Overcast
8:49 AM 75.2 °F - 73.4 °F 94% 30.34 in 7.0 mi Variable 4.6 mph - N/A   Mostly Cloudy
8:54 AM 75.9 °F - 72.0 °F 87% 30.31 in 7.0 mi Variable 3.5 mph - N/A   Mostly Cloudy
9:10 AM 75.9 °F - 72.0 °F 87% 30.35 in 9.0 mi Variable 4.6 mph - N/A   Mostly Cloudy
9:42 AM 78.1 °F - 73.0 °F 84% 30.34 in 9.0 mi Calm Calm - N/A   Overcast
9:54 AM 77.0 °F - 72.0 °F 84% 30.31 in 10.0 mi Calm Calm - N/A   Overcast
10:01 AM 79.0 °F - 73.9 °F 84% 30.34 in 10.0 mi Variable 3.5 mph - N/A   Overcast
10:19 AM 78.1 °F - 72.0 °F 81% 30.34 in 10.0 mi East 5.8 mph - N/A   Mostly Cloudy
10:32 AM 81.0 °F 86.2 °F 73.9 °F 79% 30.34 in 10.0 mi Variable 4.6 mph - N/A   Mostly Cloudy
10:54 AM 79.0 °F - 72.0 °F 79% 30.30 in 10.0 mi Variable 4.6 mph - N/A   Scattered Clouds
11:54 AM 82.0 °F 86.7 °F 72.0 °F 71% 30.31 in 10.0 mi Calm Calm - N/A   Mostly Cloudy
12:50 PM 82.4 °F 88.2 °F 73.4 °F 74% 30.34 in 10.0 mi Variable 3.5 mph - N/A   Mostly Cloudy
12:54 PM 82.9 °F 88.8 °F 73.0 °F 72% 30.30 in 10.0 mi Variable 4.6 mph - N/A   Mostly Cloudy
1:03 PM 82.9 °F 87.5 °F 71.1 °F 67% 30.33 in 10.0 mi Variable 3.5 mph - N/A   Mostly Cloudy
1:54 PM 84.9 °F 90.1 °F 71.1 °F 63% 30.27 in 10.0 mi Variable 6.9 mph - N/A   Partly Cloudy
2:52 PM 86.0 °F 90.4 °F 69.8 °F 58% 30.30 in 2.0 mi East 4.6 mph - N/A   Haze
2:54 PM 86.0 °F 90.1 °F 69.1 °F 57% 30.26 in 2.0 mi Calm Calm - N/A   Haze
3:02 PM 87.1 °F 92.0 °F 70.0 °F 57% 30.30 in 10.0 mi Variable 3.5 mph - N/A   Clear
3:54 PM 88.0 °F 92.9 °F 70.0 °F 55% 30.25 in 10.0 mi East 8.1 mph - N/A   Partly Cloudy
4:54 PM 87.1 °F 92.0 °F 70.0 °F 57% 30.24 in 10.0 mi ENE 8.1 mph - N/A   Clear
5:54 PM 87.1 °F 92.8 °F 71.1 °F 59% 30.23 in 10.0 mi East 8.1 mph - N/A   Scattered Clouds
6:35 PM 87.1 °F 92.8 °F 71.1 °F 59% 30.27 in 2.5 mi Variable 5.8 mph - N/A   Haze
6:44 PM 86.0 °F 90.7 °F 70.0 °F 59% 30.27 in 10.0 mi Variable 4.6 mph - N/A   Partly Cloudy
6:54 PM 86.0 °F 91.5 °F 71.1 °F 61% 30.23 in 10.0 mi East 3.5 mph - N/A   Partly Cloudy
7:54 PM 82.9 °F 87.5 °F 71.1 °F 67% 30.24 in 10.0 mi South 3.5 mph - N/A   Mostly Cloudy
8:54 PM 79.0 °F - 73.0 °F 82% 30.25 in 10.0 mi SSW 3.5 mph - N/A   Mostly Cloudy
9:54 PM 75.0 °F - 73.0 °F 94% 30.27 in 10.0 mi Calm Calm - N/A   Clear
10:54 PM 73.9 °F - 72.0 °F 93% 30.27 in 10.0 mi Calm Calm - N/A   Clear
11:54 PM 73.0 °F - 72.0 °F 96% 30.27 in 10.0 mi Calm Calm - N/A   Clear